Wind_Speed
18 19 20 21 21 22 23 23 24 24 25 25 26 26 27 27 28 28 28 28 28 29 28 28 29 29 29 29 30 30 30 31 32 32 32 33 33 32 32 32 32 32 33 33 34 36 37 38 38 39 39 39 39 40 40 38 37 36 35 34 33 33 34 36 36 37 41 45 49 51 51 50 46 44
19 20 21 21 22 23 24 25 26 26 27 27 28 28 29 29 29 30 30 30 30 31 30 30 30 31 31 32 32 32 32 32 33 33 33 34 34 34 34 33 33 33 34 34 35 35 36 37 38 39 40 40 40 40 40 39 39 38 37 36 34 33 33 32 32 33 35 39 44 48 50 51 48 45
21 22 22 23 24 25 25 26 27 27 28 29 29 30 30 31 31 31 32 32 32 32 32 32 32 32 33 34 34 34 34 35 36 36 35 35 36 36 35 35 35 35 35 35 35 36 36 36 36 37 39 41 41 41 40 39 40 41 41 40 39 38 36 33 32 31 31 31 35 40 44 47 47 46
23 23 24 24 25 25 26 27 27 28 29 30 30 31 32 32 33 33 34 34 34 34 35 35 34 35 35 36 36 36 37 37 38 38 38 38 38 38 38 38 38 37 36 36 37 37 36 36 36 36 38 40 41 41 40 39 40 41 41 42 42 42 41 39 35 32 29 27 26 29 35 40 43 43
24 24 24 25 25 26 27 28 29 29 30 31 32 33 34 35 35 35 36 36 36 37 37 38 38 38 38 39 40 40 40 40 40 41 41 41 41 41 40 41 40 39 38 38 38 38 38 37 37 36 37 39 41 41 39 37 38 39 40 41 42 42 42 42 41 38 35 33 29 25 25 27 31 33
25 25 25 26 26 27 28 30 31 32 32 33 34 35 36 37 38 38 39 39 39 39 39 40 41 41 41 42 43 44 44 44 44 44 44 44 44 43 43 43 43 41 40 40 40 40 40 39 39 37 37 37 39 40 39 37 36 37 39 40 40 41 41 42 43 42 40 39 36 29 24 20 19 19
25 26 27 28 29 30 31 32 33 34 35 36 37 38 38 39 40 40 41 41 42 42 42 43 44 44 44 44 45 46 47 47 48 48 48 47 46 45 45 46 45 43 42 42 42 42 42 41 41 40 38 38 38 39 39 38 36 36 37 38 38 38 39 40 41 41 41 40 39 36 32 28 24 20
27 28 30 31 32 32 33 34 35 36 38 39 40 41 41 42 43 43 43 44 44 44 45 45 46 46 46 46 46 47 47 48 49 50 51 50 50 49 48 48 48 45 44 44 44 44 44 43 43 42 40 39 38 38 39 38 37 36 36 37 37 36 36 38 40 40 40 40 40 39 39 38 35 31
29 30 31 32 33 34 36 37 38 39 41 42 42 43 44 44 45 45 45 45 45 45 45 46 46 47 47 47 46 47 47 47 48 49 50 52 52 52 51 50 50 48 46 46 45 45 45 45 44 43 42 41 40 39 39 38 38 37 36 36 37 36 35 36 37 37 37 37 37 37 38 39 38 34
29 30 32 33 35 37 39 40 41 42 43 43 43 44 44 43 43 43 43 43 43 43 43 43 44 45 45 45 44 43 43 44 46 46 48 49 51 52 52 52 51 50 48 48 47 46 47 46 45 45 44 43 42 41 40 39 39 39 38 38 37 37 36 35 36 36 35 35 34 34 35 36 36 34
30 32 34 36 38 39 41 42 42 43 43 43 43 43 43 42 41 41 40 40 39 39 39 39 39 39 39 39 38 37 37 38 39 40 41 43 44 46 49 50 51 51 50 50 49 48 48 47 46 46 45 45 44 43 42 41 40 40 40 39 39 38 36 35 35 35 34 34 33 33 34 34 34 33
32 34 37 39 41 43 44 44 45 44 44 44 43 43 42 41 40 39 38 38 37 37 36 35 34 33 32 31 31 30 30 30 31 32 33 35 37 39 41 44 47 49 50 51 51 50 50 49 48 47 46 46 46 46 45 43 42 42 42 41 40 39 37 36 35 35 35 34 33 33 33 33 33 32
33 36 39 42 45 46 47 47 47 46 45 44 43 42 41 40 39 38 37 36 35 34 33 31 29 27 25 24 24 24 24 24 25 25 26 28 29 31 33 36 39 42 45 48 50 51 52 51 51 50 49 48 48 48 48 46 45 44 44 44 43 42 40 38 36 35 35 35 34 33 33 33 33 31
35 38 41 45 47 49 50 50 49 47 45 44 43 42 41 39 38 36 35 34 33 31 29 27 25 22 20 19 19 20 20 20 21 21 22 23 25 26 28 30 31 33 36 39 42 45 48 49 50 50 50 49 48 49 49 48 47 47 46 46 45 44 43 40 38 37 36 35 35 34 34 33 33 32
37 41 45 48 51 53 53 52 50 47 44 43 42 41 39 38 36 34 32 31 30 28 26 24 22 20 19 18 18 18 18 18 19 20 22 23 24 26 27 28 29 30 31 32 34 37 40 42 43 44 45 45 45 46 46 46 47 47 46 46 46 46 45 42 40 38 37 36 36 35 35 34 34 33
39 43 48 52 55 56 55 53 50 46 43 41 39 38 36 35 33 31 29 27 26 25 23 21 20 19 19 18 18 18 18 19 19 21 23 25 26 28 29 30 30 31 31 32 33 34 35 35 36 37 38 39 40 41 42 43 44 45 44 44 46 47 46 45 43 40 39 37 37 36 36 36 35 34
41 45 50 54 57 57 55 52 49 45 41 38 36 34 32 31 29 27 26 24 23 22 21 20 19 19 19 19 18 18 20 21 22 23 25 26 28 29 30 30 31 32 32 33 34 35 35 35 35 35 35 35 35 37 38 39 40 40 41 42 44 47 48 47 45 43 41 39 38 38 38 38 37 36
43 47 52 56 58 59 56 51 46 42 38 35 32 30 28 26 25 23 22 21 20 19 19 19 18 19 19 19 20 20 22 23 24 24 25 26 28 29 29 30 30 31 32 33 34 35 35 36 36 35 35 35 35 36 36 37 36 36 37 39 41 44 47 48 47 45 43 41 39 38 38 38 38 37
44 49 53 57 60 60 56 50 44 39 35 32 29 27 24 22 20 19 19 18 17 16 17 18 18 18 18 19 20 21 22 23 24 25 26 26 27 28 28 29 29 30 31 32 33 34 34 34 34 34 34 35 35 36 36 36 34 34 34 36 38 41 43 46 47 45 44 42 41 39 38 37 37 37
45 50 54 58 61 61 57 50 42 37 33 30 27 24 21 18 17 16 17 17 16 15 15 15 16 16 16 18 19 21 22 22 22 23 24 23 23 23 24 24 24 23 24 26 29 31 32 32 32 31 33 34 35 35 35 35 34 33 32 33 36 38 39 42 45 45 45 44 42 41 39 38 37 37
45 50 54 59 62 63 58 50 41 36 32 29 25 22 19 17 15 15 15 15 14 14 14 14 14 14 15 17 18 19 19 19 19 20 19 18 17 17 17 16 15 14 13 15 20 22 24 28 29 29 32 33 33 33 34 33 33 32 31 31 33 36 37 38 41 44 45 45 44 42 41 39 38 37
46 50 54 58 62 63 59 51 42 35 31 27 24 21 19 16 15 13 12 12 11 11 12 13 13 14 15 16 16 15 15 15 16 15 14 12 11 11 11 11 11 10 10 12 14 14 17 23 26 27 29 29 29 31 31 30 30 30 30 30 31 33 34 35 37 41 43 44 44 43 42 40 39 38
46 49 53 58 61 62 60 52 43 36 30 26 24 22 19 17 14 12 10 9 9 9 10 12 13 14 14 13 12 12 12 12 10 9 7 6 5 7 9 10 10 10 10 11 12 12 14 19 23 24 25 26 27 28 28 28 28 27 26 27 29 30 31 32 34 38 41 43 44 44 43 41 40 39
45 49 53 56 60 62 61 55 46 38 31 27 25 23 22 20 17 14 12 11 10 10 10 10 11 12 12 11 10 9 9 8 6 6 5 3 2 4 7 9 11 12 11 9 11 12 14 17 20 21 24 24 23 23 26 26 26 26 25 25 27 28 28 29 32 35 39 41 43 44 43 42 41 40
45 48 52 55 58 60 61 57 49 41 34 30 28 27 26 23 20 17 15 13 12 11 10 10 10 9 8 8 7 7 7 5 4 4 4 2 0 3 6 8 11 12 10 9 11 12 13 15 16 17 21 22 19 20 23 24 24 25 25 24 25 26 26 27 30 33 37 39 41 43 43 43 42 40
44 47 51 54 57 59 60 58 51 42 36 33 31 29 27 24 21 18 16 15 14 13 12 11 9 7 6 5 5 6 6 5 4 4 4 3 2 2 5 8 10 10 9 10 11 10 11 13 13 13 16 18 16 16 20 23 23 24 24 24 24 24 24 25 27 30 34 38 40 41 42 42 41 40
43 46 49 52 55 57 58 57 52 44 37 33 31 29 28 25 22 19 17 15 14 13 12 10 9 7 5 5 5 6 6 6 5 3 4 3 4 4 3 4 5 7 9 10 11 10 11 12 12 12 13 14 15 14 16 20 23 23 24 24 23 23 23 23 24 26 30 35 37 39 39 40 39 39
41 45 48 51 54 56 56 55 52 46 39 34 30 29 27 24 21 18 16 15 13 12 10 9 7 6 5 6 7 7 8 6 4 3 4 4 5 5 5 5 7 9 11 13 13 13 13 13 14 15 14 14 15 16 16 18 22 23 23 23 22 21 21 22 22 22 25 29 33 35 36 36 36 36
40 43 46 49 52 54 54 53 52 48 43 37 31 28 26 25 21 18 15 14 13 12 10 8 6 6 7 8 8 7 7 5 4 5 6 6 6 7 8 10 11 12 13 13 13 13 14 14 15 17 17 16 16 17 17 18 21 22 21 21 19 19 20 20 20 21 22 25 28 30 31 31 31 31
39 41 44 47 50 52 53 52 51 49 46 41 34 28 25 25 23 19 16 14 13 12 10 8 7 7 8 10 9 8 8 8 9 9 9 9 9 9 10 12 13 13 14 14 14 14 14 13 13 15 17 18 16 15 15 16 18 18 18 17 16 15 16 17 17 18 20 21 23 24 25 26 26 26
39 40 42 45 47 50 51 51 51 49 46 43 38 31 25 23 23 20 16 13 12 12 11 9 9 10 11 12 11 10 10 11 12 13 12 12 12 13 14 15 15 15 15 14 14 14 13 13 14 16 17 17 16 15 14 15 15 15 16 16 16 14 13 14 15 16 17 18 19 20 21 22 22 23
39 40 41 43 45 48 51 51 51 49 48 45 40 32 25 21 21 20 17 12 11 12 12 11 11 12 12 12 12 12 12 13 14 14 15 15 15 16 17 18 19 17 16 15 14 13 13 14 16 17 16 16 17 17 16 15 15 16 17 17 17 16 15 15 15 15 16 17 18 18 18 18 20 21
39 39 40 41 44 47 49 51 51 50 49 47 42 34 26 20 18 19 17 13 11 13 14 12 12 12 11 12 12 13 13 14 15 15 16 17 18 19 19 20 20 20 19 17 15 14 14 15 16 17 17 17 17 18 18 18 18 18 17 17 18 18 18 18 17 17 17 17 17 17 16 15 16 16
38 39 39 41 43 45 48 50 51 50 50 48 44 37 28 20 16 17 17 14 12 13 14 13 12 11 11 11 12 13 14 15 17 17 18 19 20 19 18 17 17 17 17 15 13 12 12 13 15 16 17 17 19 20 18 17 16 15 14 17 20 20 19 18 17 17 16 16 15 15 13 13 12 12
37 38 39 40 41 44 46 49 50 51 51 50 47 41 32 23 17 15 16 15 14 13 14 14 12 11 11 11 11 12 13 15 17 18 18 18 17 16 13 11 11 10 9 8 8 10 12 12 13 14 15 18 19 17 14 15 15 13 12 15 19 19 17 16 16 14 13 13 12 12 11 11 11 11
36 38 39 40 41 42 44 47 50 51 52 51 50 45 37 28 20 15 15 15 15 13 13 13 12 12 11 11 11 11 12 14 15 15 14 14 13 11 10 9 8 7 5 5 7 9 10 10 10 11 13 16 15 12 14 17 16 13 11 12 14 14 13 13 12 11 10 9 9 8 9 9 10 10
35 37 38 39 40 41 43 46 48 51 52 52 52 49 42 33 25 19 16 15 15 14 13 12 12 12 11 11 11 10 10 11 12 11 10 9 9 9 9 8 7 7 7 9 11 11 10 11 12 13 12 12 14 15 18 18 15 13 12 11 11 10 10 9 9 8 7 7 6 7 7 8 9 10
34 36 37 38 39 40 42 44 47 49 51 52 53 52 47 38 29 24 19 16 16 16 15 13 12 12 12 11 11 10 9 8 8 8 6 6 7 7 8 7 7 6 6 7 8 9 9 11 13 13 12 12 14 16 17 16 14 13 12 10 9 9 8 7 6 6 6 6 6 7 8 8 9 9
33 34 36 37 38 39 40 42 44 47 49 51 52 53 50 42 34 28 24 20 18 17 17 16 14 13 12 12 11 10 9 7 6 5 5 6 6 7 7 7 6 5 4 3 2 3 4 5 7 9 9 10 11 12 12 13 12 12 10 9 9 8 6 5 5 5 6 6 7 7 8 9 9 10
30 33 34 36 37 38 39 40 42 45 47 49 51 53 52 47 39 31 26 23 21 19 19 18 17 15 14 13 12 11 10 8 6 4 4 5 6 7 7 7 6 5 4 4 3 1 1 0 3 5 7 8 8 7 7 8 8 8 8 8 7 7 6 6 6 6 6 7 7 7 8 8 9 9
28 30 32 34 35 37 38 39 40 42 44 47 49 51 52 50 44 36 29 25 24 22 21 21 20 18 16 15 13 12 11 10 9 7 5 4 5 6 6 7 7 7 6 6 5 4 3 3 2 3 4 4 4 3 3 4 5 6 6 6 6 7 7 6 5 5 5 6 6 7 8 8 7 7
25 28 30 32 33 35 36 37 38 40 41 44 46 48 50 50 48 42 34 28 25 23 22 22 21 20 19 17 15 14 13 12 10 8 7 5 4 4 4 5 6 6 6 7 6 5 6 6 5 3 2 2 2 2 2 3 4 4 5 6 6 6 6 5 5 4 4 4 5 6 7 7 7 6
23 25 27 29 31 33 34 35 37 38 39 40 43 45 47 48 48 46 41 34 28 25 23 22 22 22 21 19 18 17 16 14 12 10 7 5 4 4 4 4 4 4 4 5 5 6 7 8 8 7 6 5 4 4 3 4 5 5 6 6 6 6 5 5 5 5 4 4 5 5 6 6 6 6
20 22 25 27 28 30 32 33 35 36 37 38 39 41 43 45 46 47 45 41 35 30 26 24 22 22 21 20 19 18 17 16 15 14 12 8 5 4 4 4 4 4 4 4 5 5 6 7 8 8 7 6 5 4 4 6 7 7 7 7 7 7 7 6 6 6 5 5 5 5 5 5 5 5
17 20 22 24 26 28 30 31 32 34 35 36 36 38 39 41 43 44 44 44 41 37 33 29 26 23 21 20 18 17 16 16 15 15 14 13 10 7 5 4 4 4 4 4 4 5 5 5 6 6 6 5 5 5 6 8 8 7 7 8 8 8 8 7 7 7 7 6 5 4 4 5 5 5
Wind_Direction
309 308 307 306 304 303 301 299 297 295 293 291 290 288 286 284 283 281 279 277 275 274 272 271 270 268 266 264 262 260 259 259 260 260 261 261 259 258 259 259 259 258 256 255 252 250 249 248 248 248 248 247 246 247 249 250 252 254 253 252 251 249 249 249 247 245 245 244 242 243 244 241 238 237
311 310 309 307 305 303 301 299 298 297 295 293 292 290 289 287 285 284 283 281 279 278 276 274 273 272 271 269 267 264 262 261 260 259 259 260 260 259 258 257 257 256 256 256 254 253 251 250 249 250 250 249 247 246 247 248 249 250 251 251 251 252 252 252 250 247 248 249 247 246 247 246 243 242
314 312 310 308 306 304 302 301 300 300 299 297 296 295 293 292 291 290 288 286 285 282 281 279 277 276 274 272 271 269 267 265 263 261 259 259 260 260 259 258 257 256 256 255 255 254 253 251 250 249 251 252 251 249 248 247 248 249 250 250 251 252 253 253 251 248 248 251 250 247 247 247 246 245
315 313 312 310 309 308 306 305 304 303 302 301 300 298 296 295 293 291 290 288 286 285 283 281 279 277 275 273 272 270 268 266 265 264 262 260 259 258 258 258 257 256 256 256 255 255 254 253 250 248 249 251 253 253 250 248 248 249 250 250 251 251 251 251 251 249 249 252 254 251 247 246 246 246
317 316 315 314 313 312 310 308 306 304 302 300 298 297 295 294 292 290 288 287 285 283 282 280 278 276 274 273 271 269 267 265 263 263 262 261 260 259 257 256 256 255 255 255 255 255 254 253 252 249 248 249 251 253 253 250 248 249 250 250 250 250 250 251 251 252 252 252 254 253 245 240 240 242
319 319 318 317 315 313 311 309 307 305 303 300 298 296 294 292 291 289 288 287 285 283 281 280 278 275 273 271 270 268 267 265 263 261 260 260 259 259 258 258 257 255 254 253 253 253 253 253 253 250 248 248 250 252 254 253 250 248 249 250 250 249 250 251 252 252 251 250 251 249 243 236 231 228
323 322 321 320 319 317 315 312 310 307 305 302 300 297 295 293 290 289 288 286 285 283 282 280 278 276 273 271 269 267 266 264 263 261 260 259 258 258 257 258 258 257 255 254 253 252 252 251 251 251 249 248 248 249 252 254 253 250 249 250 250 249 249 249 249 249 249 249 249 248 246 245 243 238
329 328 326 325 323 321 318 315 312 309 306 303 301 298 296 293 291 289 288 286 284 282 281 279 278 276 274 272 270 268 266 264 262 261 260 259 257 256 256 256 256 256 255 254 253 253 252 251 250 250 249 248 248 248 249 251 253 252 250 250 250 249 248 248 249 248 248 249 250 250 250 250 250 251
333 332 331 329 327 324 321 318 315 311 308 305 302 299 297 294 292 290 288 286 284 283 281 280 278 277 275 273 271 268 266 264 262 260 258 257 256 255 254 254 255 255 253 252 252 251 252 251 250 249 249 247 247 247 247 248 251 252 251 250 250 249 247 247 248 248 247 247 248 249 250 252 252 252
337 337 335 333 330 326 323 320 317 314 311 308 305 302 299 297 295 293 291 289 288 286 284 282 281 279 277 274 271 268 265 262 260 259 258 257 256 255 254 254 254 253 253 252 251 250 250 251 251 251 250 248 246 245 245 246 248 250 251 251 250 249 247 246 246 246 246 244 243 244 245 247 248 247
342 340 337 334 331 328 325 322 320 317 314 311 308 306 303 301 299 297 295 293 292 290 288 285 284 282 278 275 271 266 262 260 259 258 258 258 257 256 255 254 253 253 252 252 251 251 250 250 250 250 250 250 249 247 245 244 244 246 248 250 250 249 247 245 244 244 243 242 240 238 239 240 241 241
343 340 338 335 333 331 329 326 323 320 317 313 310 307 305 303 300 298 296 295 293 291 290 289 288 285 279 273 268 264 261 259 258 257 257 258 257 257 256 255 254 253 252 252 251 251 251 250 250 250 250 250 251 250 248 245 243 243 244 245 247 248 247 245 243 242 241 240 238 236 235 235 236 236
342 340 339 337 336 334 332 329 326 322 318 314 310 307 304 302 300 298 296 295 295 294 294 294 292 286 277 270 265 261 258 257 257 256 256 256 256 256 256 256 255 254 252 251 251 251 251 251 251 251 250 251 252 252 252 249 245 242 241 241 242 243 243 243 242 240 239 238 237 236 233 232 232 232
343 342 341 340 339 337 335 331 327 322 317 312 308 305 302 300 299 297 297 297 298 298 297 296 293 284 274 266 261 257 256 255 255 255 255 255 255 255 255 255 255 254 253 252 250 250 251 251 251 251 251 251 251 251 251 251 247 243 240 239 239 240 240 240 239 238 238 236 236 235 233 231 229 228
345 344 344 344 343 340 337 333 328 322 315 310 305 302 300 298 297 296 296 297 298 297 296 294 288 281 272 266 261 259 258 258 258 260 261 261 260 259 258 257 256 254 253 252 250 249 249 249 249 249 249 249 249 249 249 248 246 245 242 239 238 238 238 237 237 237 236 235 234 233 232 231 229 227
348 348 348 347 346 343 338 333 328 322 316 310 306 303 300 298 296 296 296 296 295 295 293 289 283 278 273 269 267 266 267 266 267 268 268 268 267 266 264 262 260 257 255 254 252 250 249 248 248 247 246 246 246 247 247 245 244 244 243 239 237 237 236 235 233 234 234 234 233 232 231 230 230 229
350 351 351 350 348 345 341 336 330 324 319 315 310 307 304 302 300 299 298 297 295 293 291 286 280 276 275 274 273 274 275 275 274 273 273 272 270 268 266 264 262 260 258 256 254 252 250 249 248 247 246 245 245 245 245 244 243 242 240 237 235 235 234 233 231 230 231 232 232 231 230 230 230 231
353 354 354 353 350 348 344 339 334 330 325 321 317 314 310 307 305 303 300 297 295 291 286 282 278 277 277 277 278 277 277 278 279 278 276 274 272 270 268 265 262 260 258 256 255 253 252 250 248 248 247 246 245 244 244 243 242 241 238 235 234 233 233 233 231 228 227 229 230 230 230 230 230 230
357 357 356 356 354 352 348 344 340 336 333 330 326 323 319 315 312 307 302 298 295 288 281 277 276 275 275 276 277 277 279 280 281 280 277 274 271 269 268 267 265 262 260 258 255 253 251 250 248 247 247 246 244 242 241 241 240 239 238 234 232 232 232 232 231 229 226 226 227 229 230 230 230 230
360 359 359 358 358 356 353 349 345 342 340 338 336 332 329 326 321 313 307 304 301 293 285 279 277 278 280 282 283 284 284 284 283 280 278 277 273 270 268 268 266 264 263 261 257 251 248 247 246 245 245 244 241 238 236 236 236 236 236 233 230 229 229 230 230 229 227 225 225 226 228 229 230 229
3 2 1 1 1 0 357 353 349 347 346 346 345 342 339 335 328 320 315 311 310 306 299 291 288 290 293 293 292 291 291 290 288 285 284 281 276 269 265 261 256 257 263 262 257 251 243 239 238 238 237 236 235 234 232 232 231 231 231 230 227 225 225 226 227 227 226 225 224 223 224 226 228 229
5 4 4 4 5 4 2 358 354 351 350 350 349 347 344 338 331 328 325 322 319 316 309 305 306 308 305 302 300 299 298 295 293 291 289 284 276 265 255 248 247 253 257 251 247 243 232 227 225 225 227 228 228 229 227 224 224 225 225 224 221 219 219 221 223 224 224 224 223 223 222 223 225 227
6 5 6 7 8 7 6 4 1 359 356 355 354 352 349 345 343 345 346 340 336 331 324 320 319 318 316 313 310 307 305 304 306 310 308 296 282 264 253 247 244 244 242 233 227 224 219 217 216 217 220 222 224 225 221 216 216 218 219 218 216 214 215 217 219 221 222 222 222 222 222 222 223 225
7 7 8 9 10 10 10 9 8 8 7 6 6 5 2 360 359 2 3 0 357 351 341 333 329 327 326 321 316 317 322 323 330 342 341 324 284 249 249 249 241 234 231 223 217 214 211 211 214 217 217 219 223 221 216 212 211 210 210 209 208 208 211 214 217 219 219 220 221 221 221 221 222 224
8 9 9 10 11 13 13 13 12 12 13 13 13 11 8 6 5 5 5 6 6 360 351 348 348 343 335 327 328 337 346 347 348 3 10 3 220 204 223 237 237 231 225 214 209 209 205 205 212 217 215 214 217 215 210 209 207 205 204 203 202 204 207 211 216 218 218 219 219 220 220 221 222 223
9 10 11 11 13 14 16 16 14 14 14 13 12 10 8 8 8 9 10 10 9 4 358 359 4 357 345 349 354 353 358 6 17 34 44 36 11 289 252 246 241 234 220 202 195 195 195 200 207 210 206 203 202 202 203 203 201 200 201 201 202 204 207 211 215 217 218 218 218 219 220 221 222 223
8 11 12 12 13 16 17 18 17 15 14 12 11 10 9 9 8 10 12 11 10 10 6 5 9 6 8 30 29 18 22 24 24 46 62 42 15 353 309 248 215 201 190 180 176 175 181 189 194 193 187 183 183 189 194 195 195 197 200 202 204 207 210 213 215 217 217 217 218 219 220 221 222 223
8 11 12 13 14 16 18 19 18 17 14 12 11 10 10 9 6 7 10 10 13 17 16 16 20 24 42 59 54 45 44 33 20 61 73 47 39 44 57 102 136 150 159 164 167 169 172 174 176 178 175 170 176 184 188 188 190 194 199 201 204 210 214 214 215 217 217 217 218 219 220 221 222 223
8 11 13 13 15 16 18 20 20 19 17 13 10 9 9 8 5 5 8 11 16 21 25 32 42 49 62 72 70 63 63 60 67 89 87 70 65 71 81 99 117 130 142 153 160 164 168 170 169 169 168 167 172 178 182 186 190 193 197 200 204 209 212 209 209 212 215 215 217 219 220 221 222 222
8 12 13 14 15 16 18 20 21 20 19 16 12 9 8 7 5 5 8 13 19 27 35 48 62 69 78 85 84 79 79 85 90 93 91 83 79 82 91 102 114 125 132 139 147 153 161 167 163 160 163 168 174 176 179 185 189 191 193 193 193 196 200 200 200 205 207 208 211 214 216 218 219 220
9 11 13 14 15 16 17 19 21 21 20 17 14 11 9 8 6 6 9 13 22 35 47 60 77 88 93 92 89 87 87 90 93 95 95 91 88 89 94 101 110 119 124 130 138 146 154 159 158 156 158 163 167 168 169 172 175 177 177 174 171 176 184 187 189 193 194 196 200 204 208 211 214 217
9 11 13 15 15 16 17 18 20 21 20 19 16 13 11 11 10 11 14 19 32 47 58 71 85 92 92 89 90 96 98 97 98 100 100 99 96 94 94 98 102 108 113 117 125 135 143 149 153 154 154 155 157 159 160 159 159 161 161 159 160 165 169 170 174 179 182 185 189 194 199 205 211 216
10 11 13 15 15 16 17 17 19 21 21 20 18 14 12 13 14 16 20 29 45 58 68 79 88 88 85 87 95 104 107 106 106 105 103 102 101 99 99 102 103 105 107 107 108 117 130 140 147 152 154 157 159 158 156 154 155 158 160 161 160 161 162 165 169 172 176 180 184 188 192 197 203 209
11 12 14 15 16 17 17 17 18 21 22 21 20 17 15 16 19 21 25 35 52 66 73 79 83 81 81 89 101 110 114 114 113 110 106 103 101 99 100 103 106 109 108 103 103 115 128 135 143 151 156 159 159 157 157 157 158 159 160 161 160 157 156 159 162 166 171 175 179 182 184 188 193 196
12 13 14 16 17 18 18 18 18 20 23 23 22 21 20 22 25 27 30 39 52 66 74 79 81 81 83 93 106 115 120 121 120 118 114 109 104 99 97 99 104 110 106 94 103 125 133 133 139 151 159 161 160 158 156 155 155 151 142 141 145 147 147 149 153 160 166 170 174 179 182 186 191 194
12 14 16 16 17 18 19 19 19 20 23 25 25 24 25 28 33 36 36 41 49 59 68 75 78 81 85 95 108 121 129 131 129 126 123 119 113 104 98 98 98 94 82 79 100 124 139 144 141 146 160 171 173 161 144 142 146 148 139 130 131 135 137 140 146 153 159 164 172 180 185 192 198 201
12 15 17 17 18 19 20 20 20 21 23 26 27 27 28 32 38 43 44 44 48 54 60 67 71 76 81 88 100 117 134 144 146 141 135 133 131 121 113 110 101 87 84 92 98 102 112 123 119 113 121 144 154 147 140 139 141 142 139 134 132 135 138 143 149 157 166 177 188 196 201 205 206 208
13 15 17 18 19 20 21 22 22 22 24 27 29 29 31 35 40 46 50 52 51 52 55 59 64 70 77 82 89 101 120 141 158 165 162 159 157 149 139 130 120 108 103 98 89 79 81 98 107 103 98 106 119 128 133 137 139 140 141 141 142 145 148 153 160 170 181 193 203 209 213 214 211 211
14 15 17 18 19 21 22 24 24 23 24 27 30 31 33 36 41 47 52 55 57 55 54 56 59 64 70 76 80 86 98 115 139 168 189 194 188 179 168 155 143 141 146 141 109 71 64 82 101 107 103 101 108 118 127 135 141 145 150 154 159 163 167 172 181 190 193 196 203 209 212 213 212 212
15 15 16 18 20 21 23 25 26 26 26 28 31 32 34 36 41 47 52 55 58 58 57 56 58 60 63 68 71 74 80 90 102 125 164 188 196 197 195 187 179 175 180 189 199 226 267 123 116 116 113 110 111 120 135 146 153 159 164 173 182 187 186 187 194 200 200 201 205 208 209 210 210 209
15 15 16 17 19 21 23 25 27 28 28 29 31 33 34 36 40 45 50 54 56 57 57 57 56 57 58 61 63 65 67 72 79 89 106 135 168 188 200 204 206 211 217 219 222 230 234 223 187 133 120 119 121 131 152 166 173 178 183 189 191 189 187 190 196 202 208 210 208 205 205 205 206 206
15 16 16 17 18 21 23 25 27 29 30 30 32 35 36 37 39 43 47 51 53 54 54 53 53 54 56 59 61 62 62 62 66 73 85 101 122 146 170 191 204 214 221 221 216 211 208 205 201 195 195 208 225 240 227 199 188 188 190 190 188 187 188 192 196 200 204 206 207 206 205 203 202 202
12 15 16 16 17 20 23 25 27 30 31 31 33 36 37 38 39 41 45 48 51 52 52 51 51 51 52 55 58 60 60 59 58 59 65 81 105 125 140 158 176 190 196 196 194 192 195 200 204 209 216 220 224 229 219 194 182 179 181 182 182 183 183 183 185 185 185 187 192 197 199 200 200 201
9 13 16 17 17 19 22 24 26 29 32 32 33 36 39 40 40 41 43 46 49 51 51 50 50 50 50 50 51 53 55 56 56 55 54 57 71 102 124 135 146 155 160 163 168 174 183 192 197 199 199 200 201 200 188 177 173 174 174 172 171 172 172 169 164 161 162 167 175 181 188 194 196 197
6 10 14 16 17 18 20 23 25 27 30 33 34 35 38 41 42 42 42 44 46 48 50 51 50 49 49 47 46 47 48 50 53 55 56 57 63 76 94 106 112 122 135 146 152 158 167 179 185 188 188 186 185 179 171 168 169 169 166 163 161 161 160 157 152 150 149 150 156 168 180 189 194 197
Height
5841 5840 5839 5837 5836 5834 5833 5831 5830 5829 5827 5826 5825 5823 5822 5821 5820 5819 5818 5818 5817 5816 5815 5815 5814 5814 5813 5813 5813 5813 5813 5813 5812 5812 5812 5812 5813 5814 5814 5815 5816 5816 5817 5818 5818 5819 5820 5821 5822 5823 5824 5825 5827 5827 5828 5831 5832 5833 5835 5836 5838 5840 5840 5840 5841 5843 5845 5845 5846 5846 5847 5851 5854 5857
5839 5838 5836 5835 5833 5831 5830 5828 5827 5825 5824 5822 5821 5819 5818 5817 5816 5815 5813 5813 5812 5811 5811 5810 5809 5809 5808 5807 5807 5807 5808 5808 5807 5807 5807 5807 5807 5808 5809 5810 5810 5811 5812 5812 5812 5813 5814 5816 5817 5818 5819 5819 5821 5822 5824 5826 5827 5828 5830 5832 5834 5835 5836 5837 5838 5840 5842 5841 5842 5842 5842 5845 5849 5853
5837 5836 5834 5832 5831 5829 5827 5825 5823 5822 5820 5818 5816 5815 5814 5812 5811 5810 5808 5807 5807 5806 5805 5805 5804 5803 5803 5802 5801 5801 5801 5801 5801 5801 5802 5801 5801 5802 5802 5803 5804 5805 5806 5806 5807 5807 5808 5810 5812 5813 5813 5814 5815 5817 5819 5821 5823 5823 5825 5827 5830 5831 5832 5833 5834 5836 5837 5836 5836 5837 5838 5840 5844 5847
5835 5833 5832 5830 5828 5826 5824 5822 5820 5818 5816 5814 5812 5810 5809 5807 5806 5805 5803 5802 5801 5800 5799 5799 5798 5798 5797 5796 5795 5795 5795 5795 5794 5794 5795 5795 5795 5796 5796 5796 5797 5799 5800 5801 5801 5802 5803 5804 5805 5808 5809 5809 5809 5811 5814 5816 5818 5819 5821 5823 5825 5827 5828 5828 5829 5830 5831 5832 5832 5833 5834 5836 5838 5842
5833 5831 5829 5827 5825 5823 5821 5819 5817 5815 5813 5811 5809 5806 5804 5802 5800 5799 5798 5796 5795 5794 5793 5792 5791 5791 5790 5789 5788 5789 5789 5789 5788 5788 5788 5788 5789 5789 5790 5790 5791 5793 5794 5795 5795 5796 5797 5798 5799 5802 5804 5804 5804 5806 5808 5810 5813 5814 5816 5818 5820 5822 5822 5823 5825 5827 5828 5828 5828 5829 5831 5832 5834 5837
5830 5829 5827 5825 5823 5820 5818 5816 5813 5811 5809 5807 5804 5802 5800 5798 5795 5793 5792 5790 5789 5788 5787 5785 5784 5783 5783 5782 5781 5781 5781 5781 5781 5781 5781 5782 5782 5783 5783 5783 5784 5787 5788 5789 5790 5790 5791 5792 5793 5796 5798 5799 5800 5801 5803 5805 5807 5809 5811 5812 5814 5816 5817 5819 5821 5823 5823 5823 5825 5827 5829 5830 5831 5834
5828 5826 5824 5822 5820 5817 5815 5812 5809 5806 5804 5801 5799 5796 5794 5792 5789 5787 5786 5784 5782 5780 5779 5778 5776 5775 5775 5775 5774 5773 5773 5773 5773 5774 5774 5775 5776 5777 5777 5776 5778 5781 5782 5782 5783 5784 5786 5787 5788 5790 5792 5794 5795 5797 5798 5800 5802 5804 5806 5807 5808 5810 5812 5814 5816 5817 5817 5819 5822 5824 5826 5828 5830 5833
5826 5824 5821 5818 5816 5813 5810 5807 5804 5801 5798 5795 5792 5789 5787 5785 5782 5780 5778 5777 5775 5773 5771 5769 5768 5767 5766 5766 5766 5765 5765 5765 5765 5765 5766 5767 5768 5769 5770 5770 5771 5774 5776 5775 5776 5778 5779 5781 5783 5784 5786 5788 5790 5792 5794 5796 5797 5798 5801 5802 5803 5805 5807 5809 5810 5811 5813 5815 5818 5820 5823 5825 5828 5831
5823 5820 5818 5815 5812 5809 5805 5802 5799 5795 5792 5788 5785 5782 5779 5777 5774 5772 5770 5768 5766 5765 5763 5761 5759 5758 5757 5757 5757 5757 5756 5756 5757 5757 5757 5758 5759 5761 5763 5763 5764 5767 5769 5769 5770 5771 5772 5774 5776 5778 5781 5783 5785 5786 5789 5791 5792 5793 5795 5797 5799 5800 5802 5804 5805 5807 5809 5811 5814 5816 5819 5821 5824 5828
5820 5818 5815 5812 5808 5804 5801 5797 5793 5789 5785 5781 5777 5774 5771 5769 5766 5763 5761 5760 5758 5756 5755 5753 5751 5749 5748 5748 5748 5748 5748 5748 5748 5749 5749 5750 5751 5752 5754 5755 5757 5759 5761 5762 5764 5765 5765 5767 5770 5772 5774 5776 5779 5781 5783 5786 5788 5789 5790 5792 5794 5796 5798 5800 5801 5802 5805 5807 5810 5812 5815 5817 5820 5823
5818 5815 5812 5808 5805 5801 5796 5792 5788 5783 5778 5774 5770 5766 5763 5760 5758 5756 5753 5752 5750 5748 5747 5745 5743 5741 5740 5739 5739 5739 5740 5740 5741 5741 5742 5743 5744 5745 5746 5747 5749 5751 5753 5755 5757 5758 5759 5762 5763 5765 5767 5769 5772 5775 5777 5780 5782 5784 5786 5787 5789 5791 5793 5796 5797 5799 5801 5803 5806 5808 5811 5813 5815 5818
5816 5812 5809 5805 5800 5796 5791 5786 5781 5776 5771 5767 5762 5758 5755 5753 5750 5748 5746 5744 5742 5741 5739 5738 5736 5734 5733 5733 5733 5733 5733 5734 5735 5736 5736 5736 5737 5738 5738 5739 5741 5743 5745 5747 5749 5750 5752 5755 5756 5759 5761 5763 5765 5767 5770 5774 5777 5779 5781 5782 5784 5786 5789 5791 5793 5795 5797 5799 5801 5804 5806 5808 5811 5813
5814 5810 5806 5801 5796 5791 5785 5780 5774 5769 5764 5759 5755 5752 5748 5746 5744 5741 5739 5737 5735 5734 5732 5731 5730 5729 5728 5728 5728 5728 5729 5729 5730 5731 5731 5731 5732 5732 5733 5733 5734 5736 5738 5739 5741 5743 5745 5747 5749 5752 5754 5757 5759 5760 5762 5766 5770 5773 5775 5777 5778 5781 5783 5786 5788 5791 5793 5795 5797 5800 5802 5804 5806 5809
5813 5808 5804 5799 5793 5786 5780 5774 5768 5763 5757 5752 5748 5745 5742 5739 5737 5734 5732 5730 5729 5727 5726 5725 5724 5724 5724 5723 5724 5724 5725 5725 5726 5727 5727 5727 5728 5728 5728 5729 5730 5731 5732 5733 5735 5736 5738 5740 5742 5744 5747 5751 5752 5753 5755 5759 5762 5764 5768 5771 5773 5775 5778 5780 5783 5786 5788 5791 5793 5795 5798 5800 5803 5805
5810 5806 5800 5795 5788 5781 5774 5768 5762 5756 5751 5746 5741 5737 5735 5732 5730 5728 5726 5725 5724 5722 5721 5720 5720 5719 5719 5719 5720 5720 5721 5722 5722 5722 5722 5723 5723 5724 5724 5725 5726 5726 5727 5728 5730 5731 5732 5734 5736 5738 5741 5744 5745 5747 5750 5752 5753 5756 5761 5765 5767 5769 5772 5775 5778 5781 5784 5787 5789 5792 5794 5797 5799 5802
5808 5802 5796 5790 5783 5776 5769 5761 5754 5748 5743 5738 5734 5730 5728 5726 5724 5722 5721 5720 5719 5718 5717 5716 5716 5715 5715 5715 5716 5716 5717 5717 5718 5718 5718 5718 5719 5719 5719 5720 5720 5721 5722 5723 5724 5726 5727 5729 5731 5733 5736 5738 5739 5741 5743 5745 5747 5750 5754 5758 5760 5763 5765 5769 5772 5776 5779 5782 5785 5788 5790 5793 5795 5798
5805 5800 5793 5787 5779 5772 5763 5755 5747 5741 5736 5731 5727 5724 5722 5719 5718 5717 5716 5716 5715 5714 5713 5713 5712 5712 5712 5712 5712 5712 5712 5713 5713 5714 5714 5714 5713 5713 5714 5714 5715 5715 5717 5718 5719 5721 5723 5725 5726 5728 5730 5733 5735 5735 5736 5738 5741 5744 5747 5751 5754 5756 5759 5762 5766 5770 5774 5777 5780 5783 5786 5788 5791 5794
5803 5797 5791 5784 5776 5767 5758 5749 5742 5735 5730 5726 5722 5719 5717 5715 5714 5713 5712 5712 5711 5710 5709 5709 5709 5709 5709 5708 5708 5708 5709 5709 5709 5709 5709 5709 5708 5708 5708 5708 5709 5710 5711 5712 5714 5715 5717 5719 5721 5723 5725 5727 5729 5729 5730 5732 5735 5738 5741 5744 5747 5750 5753 5756 5760 5765 5769 5772 5775 5778 5781 5784 5787 5789
5801 5795 5788 5781 5772 5763 5753 5745 5737 5731 5726 5722 5718 5715 5713 5712 5711 5710 5709 5708 5708 5707 5706 5706 5705 5705 5706 5705 5705 5705 5705 5705 5704 5704 5703 5703 5703 5702 5702 5703 5704 5704 5705 5706 5708 5710 5712 5714 5716 5718 5720 5722 5723 5723 5724 5727 5730 5733 5735 5738 5741 5745 5748 5751 5755 5759 5764 5767 5771 5774 5776 5779 5782 5785
5799 5792 5786 5778 5769 5760 5750 5741 5734 5728 5724 5720 5716 5713 5711 5710 5708 5707 5706 5705 5704 5703 5703 5702 5702 5702 5702 5702 5702 5701 5701 5700 5700 5699 5698 5698 5698 5697 5697 5698 5699 5700 5700 5701 5702 5704 5706 5708 5711 5713 5716 5716 5716 5716 5719 5723 5726 5729 5731 5734 5737 5740 5743 5746 5750 5754 5758 5762 5766 5769 5772 5775 5778 5781
5798 5791 5784 5776 5767 5757 5747 5738 5732 5726 5721 5718 5714 5712 5710 5708 5707 5705 5704 5702 5701 5700 5700 5699 5699 5699 5699 5699 5698 5698 5697 5696 5695 5694 5693 5693 5693 5693 5693 5695 5696 5696 5697 5697 5697 5698 5701 5703 5705 5708 5710 5709 5709 5711 5715 5718 5721 5725 5727 5730 5732 5735 5738 5742 5745 5749 5752 5756 5760 5764 5767 5771 5774 5776
5796 5790 5783 5775 5765 5755 5746 5737 5730 5725 5720 5716 5713 5711 5709 5707 5705 5704 5703 5701 5700 5699 5698 5697 5696 5696 5696 5696 5695 5694 5693 5692 5691 5690 5690 5690 5690 5690 5691 5692 5693 5693 5694 5694 5694 5694 5695 5697 5700 5702 5703 5704 5706 5708 5712 5715 5718 5721 5724 5726 5728 5731 5734 5737 5740 5744 5747 5751 5755 5759 5763 5766 5769 5772
5795 5789 5782 5774 5765 5756 5746 5738 5730 5724 5719 5716 5713 5710 5708 5706 5704 5703 5701 5700 5699 5698 5697 5695 5695 5695 5694 5694 5693 5692 5691 5690 5689 5688 5688 5687 5688 5689 5690 5690 5690 5691 5691 5692 5691 5691 5692 5693 5696 5698 5700 5701 5704 5706 5709 5712 5715 5718 5721 5723 5726 5728 5731 5734 5737 5739 5743 5746 5750 5754 5758 5761 5765 5767
5796 5789 5782 5774 5766 5757 5747 5738 5730 5724 5720 5716 5713 5711 5708 5706 5703 5701 5700 5699 5698 5697 5696 5695 5694 5694 5693 5693 5691 5690 5690 5689 5688 5687 5687 5687 5687 5688 5688 5688 5688 5688 5689 5690 5690 5690 5691 5692 5694 5696 5698 5700 5702 5705 5708 5711 5713 5716 5718 5721 5723 5726 5728 5731 5734 5736 5739 5742 5745 5749 5753 5757 5760 5763
5795 5789 5782 5774 5766 5758 5749 5739 5731 5726 5721 5718 5714 5711 5709 5706 5703 5701 5700 5699 5698 5697 5696 5695 5694 5694 5693 5692 5691 5690 5689 5688 5687 5687 5687 5686 5686 5686 5685 5685 5685 5686 5687 5689 5689 5689 5691 5692 5694 5696 5697 5700 5702 5705 5707 5710 5712 5714 5717 5719 5721 5724 5726 5728 5730 5733 5735 5738 5742 5745 5749 5752 5755 5759
5795 5789 5782 5775 5767 5759 5750 5741 5733 5727 5723 5719 5716 5713 5710 5707 5704 5702 5700 5699 5698 5697 5696 5694 5694 5694 5693 5692 5691 5690 5689 5688 5687 5687 5687 5686 5685 5684 5683 5683 5684 5685 5687 5688 5689 5690 5691 5692 5694 5696 5698 5700 5703 5705 5707 5709 5711 5714 5716 5718 5720 5722 5724 5726 5728 5730 5732 5735 5738 5741 5745 5748 5752 5755
5796 5789 5783 5776 5768 5760 5751 5743 5736 5730 5725 5721 5718 5714 5711 5708 5705 5703 5701 5700 5698 5697 5696 5695 5694 5694 5693 5692 5692 5691 5690 5690 5689 5688 5687 5687 5685 5684 5682 5682 5683 5684 5686 5688 5689 5690 5691 5691 5693 5696 5698 5701 5703 5705 5707 5709 5711 5713 5715 5717 5719 5721 5723 5724 5726 5728 5730 5732 5735 5739 5742 5745 5748 5751
5796 5790 5783 5777 5769 5761 5753 5746 5739 5733 5728 5723 5719 5716 5712 5709 5707 5704 5703 5701 5699 5697 5696 5696 5695 5694 5693 5693 5693 5692 5691 5691 5690 5689 5688 5687 5686 5684 5683 5682 5683 5684 5685 5687 5688 5689 5690 5691 5692 5695 5698 5701 5703 5705 5706 5708 5710 5712 5714 5716 5718 5720 5722 5723 5725 5727 5729 5731 5733 5736 5739 5743 5746 5749
5796 5790 5784 5778 5770 5763 5756 5749 5742 5736 5730 5725 5721 5717 5714 5710 5708 5705 5703 5701 5699 5698 5697 5696 5695 5695 5694 5694 5693 5693 5692 5691 5691 5690 5689 5688 5687 5685 5685 5684 5684 5685 5686 5687 5689 5690 5692 5692 5694 5696 5698 5700 5702 5704 5706 5707 5709 5711 5713 5715 5717 5719 5720 5722 5724 5726 5728 5730 5732 5735 5738 5741 5744 5746
5797 5791 5785 5779 5773 5766 5759 5752 5745 5739 5733 5727 5722 5718 5714 5711 5708 5706 5704 5702 5700 5699 5697 5696 5696 5696 5695 5695 5694 5694 5693 5693 5692 5691 5690 5689 5688 5687 5687 5686 5686 5687 5688 5689 5690 5692 5693 5694 5696 5697 5698 5700 5702 5704 5705 5707 5709 5711 5713 5714 5716 5718 5719 5721 5723 5726 5728 5730 5732 5735 5737 5739 5742 5744
5798 5792 5786 5781 5775 5769 5762 5755 5748 5741 5735 5729 5724 5719 5715 5712 5709 5706 5704 5703 5701 5699 5698 5697 5696 5696 5696 5696 5696 5696 5695 5694 5693 5692 5691 5691 5691 5690 5690 5689 5689 5689 5690 5691 5692 5693 5694 5695 5697 5698 5698 5700 5701 5703 5705 5707 5709 5711 5713 5714 5716 5718 5720 5721 5723 5725 5727 5729 5732 5734 5736 5738 5740 5743
5799 5793 5788 5782 5777 5771 5764 5757 5750 5743 5737 5731 5725 5720 5715 5713 5710 5707 5705 5704 5702 5701 5699 5698 5698 5698 5698 5697 5697 5697 5697 5696 5695 5694 5694 5693 5693 5693 5693 5693 5693 5693 5694 5694 5695 5696 5696 5697 5698 5699 5700 5701 5702 5704 5706 5708 5710 5712 5713 5714 5716 5718 5720 5721 5723 5725 5727 5729 5731 5733 5735 5737 5739 5740
5800 5794 5789 5783 5778 5772 5766 5759 5752 5746 5739 5732 5726 5721 5716 5713 5711 5709 5707 5705 5704 5702 5701 5700 5700 5700 5700 5699 5699 5698 5698 5698 5698 5697 5697 5697 5696 5697 5697 5697 5697 5697 5697 5698 5699 5699 5699 5700 5700 5701 5702 5703 5704 5705 5707 5709 5710 5712 5713 5715 5717 5719 5720 5722 5724 5726 5728 5729 5731 5732 5734 5736 5737 5738
5801 5796 5790 5785 5779 5774 5768 5762 5755 5748 5741 5734 5728 5722 5717 5714 5712 5711 5709 5707 5706 5704 5703 5702 5702 5702 5702 5701 5701 5701 5701 5700 5700 5700 5700 5700 5700 5700 5700 5700 5700 5700 5700 5701 5702 5702 5702 5703 5703 5703 5704 5704 5705 5707 5709 5710 5712 5713 5714 5715 5717 5720 5721 5723 5725 5726 5728 5729 5731 5732 5734 5735 5736 5737
5802 5797 5792 5786 5781 5776 5770 5764 5758 5751 5744 5737 5730 5724 5719 5715 5713 5712 5711 5709 5708 5706 5705 5704 5704 5704 5704 5704 5704 5704 5703 5703 5703 5702 5702 5702 5702 5703 5703 5703 5703 5703 5703 5703 5704 5704 5705 5705 5706 5706 5706 5707 5707 5708 5710 5711 5713 5715 5715 5716 5718 5720 5721 5723 5725 5727 5728 5729 5731 5732 5733 5734 5735 5736
5803 5798 5793 5788 5783 5778 5773 5767 5761 5754 5747 5740 5733 5727 5722 5717 5715 5714 5713 5711 5710 5709 5708 5707 5706 5706 5705 5705 5706 5706 5706 5706 5705 5705 5705 5705 5705 5705 5706 5706 5706 5706 5706 5705 5706 5706 5706 5707 5707 5708 5708 5708 5709 5710 5711 5713 5714 5716 5717 5718 5719 5721 5722 5723 5725 5727 5728 5729 5730 5731 5732 5733 5734 5735
5805 5800 5795 5790 5785 5780 5775 5770 5764 5757 5750 5743 5736 5730 5725 5720 5717 5716 5715 5714 5713 5712 5711 5710 5709 5708 5708 5707 5707 5707 5708 5708 5708 5707 5707 5707 5707 5707 5707 5708 5708 5708 5708 5707 5708 5708 5708 5708 5709 5709 5709 5710 5710 5712 5713 5714 5716 5717 5719 5720 5721 5722 5723 5724 5726 5727 5728 5728 5729 5730 5731 5732 5733 5733
5806 5801 5797 5792 5787 5782 5777 5772 5767 5761 5755 5748 5741 5735 5729 5724 5721 5719 5718 5717 5716 5715 5714 5713 5712 5711 5710 5710 5709 5709 5709 5709 5709 5709 5709 5709 5709 5709 5709 5709 5709 5709 5709 5709 5709 5710 5710 5711 5711 5711 5712 5712 5713 5714 5715 5716 5717 5719 5720 5721 5722 5723 5724 5725 5726 5726 5727 5728 5728 5729 5730 5730 5731 5732
5807 5803 5799 5794 5790 5785 5780 5775 5770 5765 5759 5752 5746 5740 5734 5729 5725 5723 5721 5720 5719 5718 5717 5716 5715 5714 5713 5712 5711 5711 5710 5710 5710 5710 5710 5710 5710 5710 5710 5710 5710 5711 5711 5711 5711 5711 5712 5713 5713 5713 5714 5714 5715 5716 5717 5718 5719 5720 5721 5722 5722 5723 5724 5725 5725 5726 5726 5727 5727 5728 5729 5730 5730 5731
5808 5805 5801 5796 5792 5788 5783 5779 5774 5769 5763 5757 5751 5745 5740 5735 5730 5728 5726 5724 5723 5722 5721 5719 5718 5717 5716 5715 5714 5713 5712 5712 5711 5711 5711 5711 5711 5711 5711 5711 5711 5711 5711 5712 5712 5712 5713 5713 5714 5715 5715 5716 5717 5717 5718 5719 5720 5720 5721 5722 5722 5723 5724 5724 5725 5725 5726 5726 5727 5727 5728 5729 5730 5730
5810 5806 5802 5799 5795 5791 5786 5782 5777 5773 5768 5762 5756 5751 5745 5740 5736 5733 5730 5728 5727 5725 5724 5723 5722 5720 5719 5717 5716 5715 5714 5713 5713 5712 5712 5712 5712 5712 5712 5712 5712 5712 5712 5712 5713 5713 5713 5714 5714 5715 5716 5716 5717 5718 5718 5719 5720 5720 5721 5721 5722 5722 5723 5724 5724 5724 5725 5725 5726 5727 5727 5728 5728 5729
5811 5808 5804 5801 5797 5793 5789 5785 5781 5776 5772 5767 5762 5756 5751 5747 5742 5738 5735 5733 5731 5729 5728 5726 5725 5723 5722 5720 5719 5717 5716 5715 5714 5714 5713 5713 5712 5712 5712 5712 5712 5712 5712 5712 5713 5713 5713 5714 5714 5715 5716 5716 5717 5717 5718 5718 5719 5720 5720 5721 5721 5722 5722 5723 5723 5724 5724 5725 5725 5726 5726 5727 5728 5728
5812 5809 5806 5803 5799 5796 5792 5788 5784 5780 5776 5772 5767 5762 5757 5753 5748 5744 5740 5737 5735 5733 5731 5730 5728 5726 5725 5723 5721 5720 5718 5717 5716 5715 5714 5714 5713 5713 5712 5712 5712 5712 5712 5712 5713 5713 5713 5714 5714 5715 5715 5716 5716 5717 5717 5718 5719 5719 5720 5720 5721 5721 5722 5722 5723 5723 5724 5724 5725 5725 5726 5727 5728 5728
5813 5810 5808 5804 5801 5798 5795 5791 5788 5784 5780 5776 5772 5767 5763 5758 5754 5750 5746 5743 5740 5737 5735 5733 5731 5729 5727 5726 5724 5722 5721 5719 5718 5716 5715 5714 5714 5713 5713 5713 5713 5713 5713 5713 5713 5713 5713 5714 5714 5714 5715 5716 5716 5717 5717 5718 5718 5719 5719 5720 5721 5721 5722 5722 5723 5723 5724 5724 5725 5725 5726 5727 5727 5728
5813 5811 5809 5806 5803 5800 5797 5794 5790 5787 5783 5780 5776 5772 5768 5764 5760 5756 5752 5749 5745 5742 5739 5736 5734 5732 5730 5728 5727 5725 5723 5721 5720 5718 5717 5716 5715 5714 5714 5714 5714 5713 5713 5713 5713 5713 5714 5714 5714 5715 5715 5716 5716 5717 5717 5718 5718 5719 5720 5720 5721 5721 5722 5723 5723 5724 5724 5725 5725 5726 5726 5727 5727 5728